Lawrence, MA

4:02 PM EDT on August 28, 2016 (GMT -0400)
Lawrence Municipal

Weather History for KLWM - July, 2013

Change the Weather History Date:

Saturday, July 6, 2013

  Actual Average Record
Temperature  
Mean Temperature 84 °F -  
Max Temperature 90 °F 80 °F 99 °F (2010)
Min Temperature 77 °F 60 °F 48 °F (1962)
Cooling Degree Days 18    
Growing Degree Days 34 (Base 50)    
Moisture  
Dew Point 68 °F    
Average Humidity 60    
Maximum Humidity 82    
Minimum Humidity 45    
Precipitation  
Precipitation 0.00 in - - ()
Sea Level Pressure  
Sea Level Pressure 30.04 in    
Wind  
Wind Speed 7 mph (WSW)    
Max Wind Speed 13 mph    
Max Gust Speed 22 mph    
Visibility 10 miles    
Events      
Averages and records for this station are not official NWS values.
T = Trace of Precipitation, MM = Missing Value Source: NWS Daily Summary

Daily Weather History Graph

Daily Weather History Graph

Search for Another Location

Airport or City:

Trip Planner

Search our weather history database for the weather conditions in past years. The results will help you decide how hot, cold, wet, or windy it might be!

Date:

Astronomy

Jul. 06, 2013 Rise Set
Actual Time 5:13 AM EDT 8:25 PM EDT
Civil Twilight 4:38 AM EDT 8:59 PM EDT
Nautical Twilight 3:54 AM EDT 9:44 PM EDT
Astronomical Twilight 3:00 AM EDT 10:37 PM EDT
Moon 3:57 AM EDT (7/6) 7:02 PM EDT (7/6)
Length of Visible Light 16h 20m
Length of Day
15h 11m
Waning Crescent, 2% of the Moon is Illuminated
Jul 6
Waning Crescent
Jul 8
New
Jul 15
First Quarter
Jul 22
Full
Jul 29
Last Quarter

Hourly Weather History & Observations

Time (EDT) Temp. Heat Index Dew Point Humidity Pressure Visibility Wind Dir Wind Speed Gust Speed Precip Events Conditions
12:54 AM 81.0 °F 85.2 °F 72.0 °F 74% 30.08 in 10.0 mi WSW 5.8 mph - N/A   Clear
1:54 AM 81.0 °F 84.9 °F 71.1 °F 72% 30.07 in 10.0 mi SW 6.9 mph - N/A   Clear
2:54 AM 79.0 °F - 72.0 °F 79% 30.07 in 10.0 mi SSW 5.8 mph - N/A   Clear
3:54 AM 79.0 °F - 72.0 °F 79% 30.07 in 10.0 mi SSW 5.8 mph - N/A   Clear
4:54 AM 77.0 °F - 71.1 °F 82% 30.07 in 10.0 mi SW 4.6 mph - N/A   Clear
5:54 AM 78.1 °F - 71.1 °F 79% 30.07 in 10.0 mi SW 6.9 mph - N/A   Clear
6:54 AM 80.1 °F 83.6 °F 71.1 °F 74% 30.08 in 10.0 mi WSW 6.9 mph - N/A   Clear
7:54 AM 82.0 °F 86.3 °F 71.1 °F 69% 30.08 in 10.0 mi WSW 6.9 mph - N/A   Clear
8:54 AM 84.0 °F 89.0 °F 71.1 °F 65% 30.07 in 10.0 mi WSW 6.9 mph 16.1 mph N/A   Clear
9:54 AM 86.0 °F 90.7 °F 70.0 °F 59% 30.06 in 10.0 mi West 9.2 mph - N/A   Clear
10:54 AM 88.0 °F 92.9 °F 70.0 °F 55% 30.05 in 10.0 mi West 12.7 mph 19.6 mph N/A   Scattered Clouds
11:54 AM 88.0 °F 92.1 °F 69.1 °F 53% 30.05 in 10.0 mi West 11.5 mph 19.6 mph N/A   Partly Cloudy
12:54 PM 88.0 °F 92.1 °F 69.1 °F 53% 30.04 in 10.0 mi West 10.4 mph 18.4 mph N/A   Partly Cloudy
1:54 PM 89.1 °F 93.7 °F 69.1 °F 52% 30.04 in 10.0 mi WNW 10.4 mph 19.6 mph N/A   Mostly Cloudy
2:54 PM 89.1 °F 92.9 °F 68.0 °F 50% 30.03 in 10.0 mi West 8.1 mph 19.6 mph N/A   Scattered Clouds
3:54 PM 90.0 °F 92.4 °F 66.0 °F 45% 30.01 in 10.0 mi West 12.7 mph 20.7 mph N/A   Clear
4:54 PM 89.1 °F 92.1 °F 66.9 °F 48% 30.00 in 10.0 mi West 10.4 mph - N/A   Clear
5:54 PM 89.1 °F 91.3 °F 66.0 °F 46% 29.99 in 10.0 mi West 11.5 mph 21.9 mph N/A   Clear
6:54 PM 87.1 °F 88.9 °F 64.9 °F 48% 29.99 in 10.0 mi West 11.5 mph - N/A   Clear
7:54 PM 84.9 °F 85.4 °F 62.1 °F 46% 29.99 in 10.0 mi West 5.8 mph - N/A   Clear
8:54 PM 82.9 °F 83.2 °F 60.1 °F 46% 30.01 in 10.0 mi West 6.9 mph - N/A   Clear
9:54 PM 81.0 °F 81.6 °F 60.1 °F 49% 30.02 in 10.0 mi West 6.9 mph - N/A   Clear
10:54 PM 79.0 °F - 60.1 °F 52% 30.02 in 10.0 mi West 4.6 mph - N/A   Clear
11:54 PM 77.0 °F - 61.0 °F 58% 30.03 in 10.0 mi WSW 5.8 mph - N/A   Clear